User: anonymous   Login
Location: Albany
(35.0000°S, 118.0000°E)
Time: 04:51:11
(UTC-05:00)
Language:

CZ-4B R/B - Orbit

View from above orbital plane
View from above orbital plane
View from above satellite
View from above satellite

Ground track
Ground track

The orbit data is extracted from the following two-line orbital elements,

1 33410U 08053C   16345.48958320  .00000041  00000-0  79276-5 0  9996
2 33410  97.7050 312.1181 0122067 103.8760 257.6077 14.98047207442535
Epoch (UTC): 10 December 2016 11:44:59
Eccentricity: 0.0122067
inclination: 97.7050°
perigee height: 488 km
apogee height: 658 km
right ascension of ascending node: 312.1181°
argument of perigee: 103.8760°
revolutions per day: 14.98047207
mean anomaly at epoch: 257.6077°
orbit number at epoch: 44253

The dashed part of the orbit path shows where the satellite is in the earth's shadow,  

DLR